This is the latest recevied weather packets stored in our database for station/object TK5EP-13. If no packets are shown the sender has not sent any weather packets the latest 1 day(s).
| Time | Temp. | Humidity | Pressure | Rain* | Wind** | Luminosity | Snow |
|---|---|---|---|---|---|---|---|
| 1777970839 | 12.78° C | 97% | - | - | 6.71 m/s, 186° | - | - |
| 1777970538 | 12.78° C | 97% | - | - | 8.49 m/s, 212° | - | - |
| 1777970235 | 12.78° C | 97% | - | - | 8.05 m/s, 213° | - | - |
| 1777969934 | 13.33° C | 97% | - | - | 7.15 m/s, 202° | - | - |
| 1777969633 | 12.78° C | 97% | - | - | 7.15 m/s, 186° | - | - |
| 1777969332 | 12.78° C | 97% | - | - | 6.26 m/s, 188° | - | - |
| 1777969031 | 12.78° C | 97% | - | - | 7.15 m/s, 197° | - | - |
| 1777968730 | 12.78° C | 97% | - | - | 7.15 m/s, 203° | - | - |
| 1777968430 | 12.78° C | 97% | - | - | 8.05 m/s, 205° | - | - |
| 1777968129 | 12.78° C | 97% | - | - | 7.15 m/s, 188° | - | - |
| 1777967825 | 12.78° C | 97% | - | - | 8.49 m/s, 189° | - | - |
| 1777967524 | 12.78° C | 97% | - | - | 8.05 m/s, 193° | - | - |
| 1777967223 | 12.78° C | 97% | - | - | 7.15 m/s, 194° | - | - |
| 1777966922 | 12.78° C | 97% | - | - | 7.6 m/s, 190° | - | - |
| 1777966619 | 12.78° C | 97% | - | - | 8.05 m/s, 204° | - | - |
| 1777966318 | 12.78° C | 97% | - | - | 6.71 m/s, 197° | - | - |
| 1777966017 | 12.78° C | 97% | - | - | 6.71 m/s, 207° | - | - |
| 1777965716 | 12.78° C | 97% | - | - | 7.15 m/s, 215° | - | - |
| 1777965415 | 12.78° C | 97% | - | - | 7.6 m/s, 214° | - | - |
| 1777965115 | 12.78° C | 97% | - | - | 7.6 m/s, 199° | - | - |
| 1777964811 | 12.78° C | 97% | - | - | 7.6 m/s, 184° | - | - |
| 1777964510 | 12.78° C | 97% | - | - | 6.71 m/s, 186° | - | - |
| 1777964209 | 12.78° C | 97% | - | - | 6.26 m/s, 214° | - | - |
| 1777963909 | 12.78° C | 97% | - | - | 6.71 m/s, 207° | - | - |
| 1777963605 | 12.78° C | 97% | - | - | 7.15 m/s, 193° | - | - |
* Rain since midnight (hover to see other rain measurements)
** Current wind speed in m/s (hover to see current wind gust speed)